RH
91 90 87 85 83 80 75 74 74 76 75 69 69 70 74 74 75 88 94 89 90 90 92 82 69 75 74 79 85 81 87 95 97 89 85 87 92 83 86 83 84 87 90 94 85 90 91 60 78 81 69 79 79 80
91 90 88 86 83 82 77 76 76 78 78 70 69 69 72 74 76 82 95 87 83 92 89 81 75 73 66 68 82 83 97 99 99 99 96 97 91 90 85 87 81 79 72 82 81 76 56 57 72 72 76 74 78 73
91 90 88 86 85 83 80 77 77 80 80 73 70 70 73 73 74 83 93 97 95 97 80 84 71 61 71 79 66 86 88 91 99 99 99 98 94 84 90 90 82 76 71 74 72 67 62 56 59 69 79 77 78 70
91 90 89 87 86 84 83 80 78 81 79 75 71 74 75 75 75 84 97 97 93 97 94 81 64 78 65 70 75 70 75 79 94 89 85 96 98 90 91 87 86 73 74 72 76 68 68 58 62 58 74 75 79 80
91 90 89 88 87 86 84 82 81 80 78 77 73 74 76 77 78 93 98 98 95 92 95 94 81 77 71 71 72 77 76 81 91 89 94 88 92 96 89 93 97 77 70 77 74 61 62 58 65 71 80 76 75 78
92 91 90 89 88 87 86 84 85 82 81 80 75 77 77 77 81 85 94 91 93 88 97 99 81 75 71 71 80 80 82 88 96 94 94 90 83 93 94 90 79 67 62 64 67 64 64 64 81 83 84 83 83 78
93 92 91 90 89 88 87 87 87 83 83 81 76 77 79 78 93 87 87 87 82 89 97 97 96 75 87 84 89 87 87 95 94 95 96 96 94 92 91 91 62 57 66 70 73 83 84 83 81 85 81 80 77 83
94 94 92 91 90 88 88 89 88 85 83 77 78 78 76 78 84 93 96 85 88 96 84 96 96 87 78 93 90 88 96 97 95 94 94 97 95 95 96 70 61 56 53 72 82 83 82 82 81 84 85 81 83 84
94 94 93 91 90 89 90 89 89 86 80 79 77 75 91 93 96 96 81 86 94 93 93 91 97 98 92 97 97 92 94 97 90 96 97 93 93 90 78 70 74 79 79 77 81 85 82 83 83 85 86 87 88 88
95 94 93 91 90 90 90 90 88 84 82 75 85 86 98 94 77 82 97 97 98 98 88 96 94 96 94 93 100 92 95 93 98 87 90 96 92 81 86 90 90 90 80 81 86 90 88 92 87 90 91 91 92 94
95 94 93 92 90 90 90 89 85 80 73 86 93 96 93 81 92 95 95 94 96 93 91 87 94 95 90 99 99 96 98 99 99 99 96 98 92 89 89 89 88 83 81 79 83 87 88 84 87 88 92 92 91 86
94 94 93 92 91 90 91 88 81 84 92 84 90 90 91 86 96 88 99 96 88 97 95 98 97 97 94 97 100 97 100 100 95 99 99 97 86 90 89 86 78 92 88 87 83 87 91 93 93 89 92 90 87 89
94 93 93 92 90 91 90 86 78 78 82 85 87 89 92 92 90 90 96 99 95 97 100 98 96 92 93 98 99 100 100 98 96 99 96 96 92 90 89 83 77 82 88 96 97 95 90 88 89 93 88 72 66 72
93 93 92 92 91 92 90 84 77 79 88 92 82 81 84 99 96 93 94 94 91 96 96 96 96 97 90 100 99 100 94 100 99 100 96 96 96 94 90 81 81 88 82 84 96 98 99 99 91 83 86 82 75 76
93 93 93 93 93 91 86 80 77 87 93 92 84 72 96 88 98 98 98 96 96 93 98 96 98 95 96 98 99 99 99 98 95 94 99 100 96 92 89 85 87 94 95 99 96 99 100 75 73 74 80 80 82 80
93 93 96 94 93 89 85 80 88 88 94 94 96 84 92 99 98 100 100 99 97 80 84 84 97 98 90 97 98 99 98 96 96 100 100 100 96 90 90 89 83 92 99 99 100 100 99 88 89 84 74 75 88 92
86 96 94 94 91 85 81 97 100 100 95 100 100 90 96 97 92 96 93 92 94 95 98 90 91 87 97 99 98 98 98 99 100 100 100 97 95 93 86 87 82 87 96 98 97 100 99 99 95 76 52 61 86 91
95 96 94 93 87 89 99 100 98 98 98 98 100 98 90 85 87 89 94 97 96 96 96 96 94 94 97 100 98 97 99 100 99 99 98 91 89 90 84 87 85 77 70 73 89 99 99 94 84 66 72 84 87 90
96 95 92 85 86 95 100 100 99 98 97 99 99 99 96 91 90 91 94 97 95 95 97 99 93 91 90 94 96 98 97 100 93 90 90 84 81 86 88 91 94 96 96 97 97 96 90 90 73 67 61 65 75 79
92 90 86 82 80 99 98 99 98 97 99 96 99 100 98 97 96 98 98 97 94 96 99 94 89 92 93 90 95 97 98 95 95 95 85 85 84 95 95 94 88 87 86 85 90 81 94 78 70 67 69 68 78 80
93 95 91 91 100 98 96 99 100 99 98 97 98 98 98 98 100 100 97 96 98 98 98 91 88 82 94 95 92 92 92 92 94 94 88 93 90 97 98 97 97 89 82 76 73 76 85 92 79 74 84 70 80 87
99 88 99 97 99 98 96 97 96 97 95 97 98 97 100 100 98 96 100 98 96 94 93 94 88 85 92 90 83 90 87 86 89 92 82 85 89 94 96 97 98 97 97 95 95 94 93 88 79 77 75 77 81 96
90 94 100 100 98 98 98 97 96 98 94 95 98 97 98 100 99 95 98 95 94 92 91 92 95 95 91 89 95 88 89 91 86 82 79 85 90 95 97 96 96 97 96 93 96 95 94 87 88 84 83 88 96 97
89 99 99 98 97 97 95 99 96 96 98 98 99 97 96 100 97 99 100 97 91 97 97 92 98 98 95 90 94 84 80 91 95 96 92 95 96 85 88 92 93 95 94 96 97 96 96 94 85 92 92 91 95 95
99 97 98 97 96 94 97 98 99 98 99 99 100 97 98 98 100 100 100 91 93 96 94 97 95 90 87 92 88 83 92 88 89 89 91 93 96 97 94 94 84 88 95 99 97 97 96 97 96 94 93 92 90 91
98 95 98 95 96 91 95 99 98 97 97 100 99 98 100 99 100 89 91 91 95 95 96 93 90 94 94 85 75 77 66 86 94 92 88 90 90 89 89 90 86 70 96 93 96 95 94 95 94 93 93 89 80 85
97 96 96 82 90 89 94 87 84 95 100 98 98 100 98 97 93 80 90 93 92 94 94 94 89 84 78 80 79 83 95 88 83 84 92 94 93 90 88 85 82 75 95 94 94 93 90 91 91 90 88 91 88 83
95 93 95 97 97 97 93 98 97 97 93 89 87 98 91 86 77 82 84 91 93 96 96 97 94 91 90 90 89 90 96 98 98 96 96 93 91 91 91 88 84 77 84 96 94 93 92 91 90 89 88 86 85 90
97 94 91 98 99 99 93 91 92 92 81 90 90 91 88 85 90 92 90 94 98 95 88 83 84 95 94 94 95 94 94 94 85 78 71 68 90 78 87 90 89 97 97 96 82 80 96 94 93 90 88 89 90 94
98 96 95 99 97 96 94 94 95 97 94 89 90 94 94 93 91 97 95 93 88 78 85 88 90 88 85 85 79 85 95 92 86 77 72 70 75 88 94 95 94 95 98 99 97 97 88 93 94 98 100 98 97 97
98 96 94 98 96 96 97 94 96 91 95 98 100 96 91 96 90 93 96 96 94 93 90 89 92 96 93 90 94 91 85 93 94 89 88 90 97 96 94 94 95 97 98 98 98 99 100 100 100 100 99 98 99 94
99 98 97 94 94 96 97 97 100 99 100 100 97 100 96 96 92 88 99 99 96 93 92 100 98 96 98 100 99 99 88 98 97 96 98 97 96 94 95 95 97 99 99 98 98 99 100 99 99 100 97 97 96 97
98 96 96 95 96 94 95 93 95 97 99 100 99 100 100 96 84 88 98 100 97 96 97 98 97 97 97 98 98 98 93 99 100 91 85 83 78 81 90 97 98 99 99 98 98 100 100 100 100 100 100 98 97 99
Wind_Speed
31 29 27 24 22 21 19 17 16 12 10 7 5 5 6 6 6 4 1 1 3 0 4 2 2 2 4 2 2 4 4 1 2 2 2 3 3 4 1 3 5 6 6 3 4 3 8 3 1 4 6 3 3 3
30 29 27 25 23 21 20 18 15 12 10 8 4 2 4 4 5 5 2 3 1 1 4 2 6 7 6 3 2 3 1 4 3 2 1 2 2 0 3 3 1 3 7 6 8 7 5 4 5 4 3 3 2 2
31 30 28 26 23 21 20 18 16 13 11 8 5 2 4 6 8 4 1 1 1 1 3 3 2 4 1 4 6 3 1 3 3 2 3 2 4 3 3 5 3 3 4 3 2 4 7 7 5 5 3 4 2 1
32 30 28 26 24 22 20 18 17 14 13 9 6 3 4 4 6 4 2 1 1 2 2 5 3 5 6 2 4 2 3 3 4 1 2 3 2 2 2 2 2 4 4 5 4 7 6 8 8 7 5 3 3 2
32 30 28 26 24 22 20 18 17 15 13 10 6 4 3 3 8 5 3 1 2 3 2 4 6 3 4 1 5 3 3 2 1 0 1 3 3 3 2 1 4 3 5 4 6 5 3 7 4 2 5 6 6 5
33 30 29 27 25 23 21 19 17 15 13 10 7 5 2 4 6 3 3 3 2 2 3 3 4 3 4 5 5 5 2 2 1 2 2 3 3 2 3 4 5 5 4 5 5 3 6 6 4 2 4 5 4 6
32 30 29 28 26 23 20 18 17 15 13 11 7 4 3 4 3 3 3 2 2 2 3 4 5 3 2 2 2 1 2 1 2 1 2 2 3 2 3 5 7 10 6 5 4 1 3 3 3 1 5 6 6 5
32 30 29 28 26 23 21 18 16 14 13 11 7 6 4 7 6 3 3 4 2 4 2 2 5 4 2 2 2 2 2 1 1 2 1 2 2 1 5 9 8 11 14 7 5 2 2 1 5 3 3 3 4 3
31 29 29 27 26 23 20 19 17 14 14 11 7 9 4 3 2 1 1 5 2 2 2 1 2 3 2 2 1 1 1 1 1 2 3 3 3 7 8 6 9 7 6 5 4 2 4 3 4 3 3 3 3 1
29 28 28 27 25 22 20 19 17 16 14 12 4 3 1 1 2 3 1 1 1 1 1 1 0 3 1 2 2 2 3 3 3 5 3 4 5 6 6 5 4 6 9 5 3 2 3 2 4 1 2 2 2 1
29 29 27 25 24 22 21 19 20 17 8 3 3 2 1 2 2 1 1 2 1 1 2 2 3 3 1 3 2 3 2 2 3 2 3 3 3 3 2 3 3 5 5 6 3 3 4 3 3 3 2 3 2 2
29 27 26 25 24 22 21 21 20 4 3 5 5 4 2 1 2 3 1 2 1 2 2 1 2 3 3 3 3 3 3 2 4 4 3 3 1 3 4 4 4 3 4 6 6 5 4 5 4 2 3 4 4 3
28 26 25 24 23 22 22 20 12 18 9 4 5 5 4 2 4 5 3 3 2 2 1 2 3 2 3 2 4 2 4 4 0 2 4 2 2 4 5 4 2 3 3 4 5 5 6 7 7 5 5 5 4 4
26 25 24 23 22 22 21 18 21 8 6 4 4 1 4 2 4 5 5 4 2 2 1 1 2 2 2 2 2 4 3 2 3 2 4 2 4 6 5 4 0 2 3 4 3 3 4 4 3 3 3 3 4 4
26 24 23 21 20 22 21 21 11 3 4 3 4 3 5 4 1 2 3 2 2 2 1 0 2 3 2 4 3 3 3 4 4 3 0 2 5 4 4 3 1 2 2 2 0 1 2 3 2 2 3 3 3 3
26 22 6 21 23 24 23 13 4 2 3 4 3 2 1 3 4 2 3 3 3 3 1 1 2 2 4 3 3 5 3 4 2 1 2 3 5 5 4 3 3 3 3 3 1 0 1 3 4 4 3 3 3 3
14 3 22 24 25 24 16 5 2 3 4 2 3 1 2 0 4 3 4 3 3 4 3 2 3 6 3 3 4 3 3 1 1 2 2 3 5 6 4 4 3 4 4 4 3 2 0 2 4 4 4 2 3 3
4 9 25 28 17 8 3 2 3 3 4 2 3 3 2 2 2 2 2 3 4 3 3 6 2 4 5 4 4 3 1 2 3 3 2 4 5 5 4 5 5 6 6 5 4 3 2 3 4 4 3 3 3 3
9 15 31 25 9 6 4 1 1 3 4 2 1 1 2 2 2 1 2 3 2 1 4 2 5 5 6 5 5 4 2 3 3 3 4 5 6 6 5 3 3 3 4 3 5 4 3 5 4 3 3 2 3 3
25 27 22 14 7 4 4 0 1 3 3 3 2 1 2 2 1 1 3 2 2 2 3 6 8 5 5 4 4 4 3 4 2 4 6 3 3 2 3 3 4 4 4 3 3 6 1 3 3 4 3 4 3 4
10 10 10 6 3 4 3 3 2 2 2 2 1 1 1 1 2 1 2 3 2 4 5 8 8 7 4 3 3 3 4 4 5 5 4 5 3 2 3 3 3 3 3 3 4 5 7 5 4 3 4 4 4 4
4 10 4 3 4 1 4 1 3 2 3 1 2 1 1 1 3 3 2 4 5 6 6 5 5 5 4 6 7 7 6 5 5 4 8 7 4 3 2 3 0 3 4 4 4 6 5 4 3 3 4 4 4 2
10 5 3 2 3 2 1 2 3 0 3 3 2 2 2 2 4 2 3 4 6 6 5 5 4 4 4 2 2 4 5 5 4 4 4 4 4 3 3 4 3 4 5 5 4 4 5 6 6 4 3 3 3 2
6 3 5 4 3 4 3 2 2 3 2 1 2 3 3 3 0 1 6 5 6 3 4 6 3 1 1 2 4 4 4 5 2 2 4 2 3 4 4 4 4 4 6 3 3 4 3 4 6 2 3 3 3 4
3 4 4 3 2 5 4 3 0 2 4 4 3 4 3 1 1 4 6 6 5 3 4 3 5 7 8 4 2 3 3 5 5 5 4 5 2 3 3 3 5 5 3 2 4 4 4 3 3 4 5 5 7 7
6 5 5 6 2 5 6 6 7 7 4 4 6 0 2 3 0 9 6 5 4 4 4 7 7 5 6 6 3 3 5 5 4 2 4 5 5 4 3 2 4 7 4 5 4 5 5 5 5 6 6 9 14 9
6 5 2 1 3 4 3 3 3 3 5 6 4 4 3 3 8 8 4 4 4 4 3 4 5 7 7 5 4 3 2 6 6 4 1 2 3 4 5 5 7 7 3 5 5 6 6 6 6 7 7 4 7 8
2 3 7 4 2 1 5 3 5 7 5 4 6 6 9 10 7 5 6 4 4 2 3 3 4 4 3 3 2 2 2 2 3 4 3 4 6 6 9 8 10 19 9 5 5 5 6 6 6 6 6 8 6 5
2 2 4 3 1 2 5 6 6 4 4 6 6 5 6 5 4 3 4 2 1 0 2 3 3 2 1 2 2 3 3 3 2 7 12 9 3 6 5 5 6 3 3 4 12 11 9 7 8 7 8 6 5 4
3 2 4 2 5 6 4 4 3 2 1 3 2 3 3 4 5 2 2 3 3 6 4 3 2 2 3 2 4 5 3 5 7 8 10 11 7 4 3 3 4 4 2 3 4 4 8 5 6 2 3 2 2 2
2 3 3 2 4 3 1 1 2 1 2 2 1 3 5 5 6 4 1 3 2 2 3 3 4 2 2 4 3 4 7 3 4 7 7 5 3 4 5 5 4 3 3 4 4 3 2 2 3 4 6 7 6 6
1 2 3 1 2 3 1 3 2 1 3 2 3 2 4 4 4 5 2 2 3 4 3 2 2 4 2 3 3 3 9 4 5 4 6 5 5 6 6 5 4 3 4 5 4 3 5 6 4 6 6 8 7 7
2 1 2 2 2 2 2 2 4 5 2 2 4 2 3 3 7 5 2 1 2 2 2 3 4 4 5 6 5 4 6 4 9 13 14 15 15 12 7 5 4 4 5 4 4 4 5 6 5 5 5 6 7 7
Wind_Direction
159 161 167 163 165 166 167 162 163 152 133 117 89 43 38 46 45 94 274 269 106 94 283 242 321 309 341 21 315 359 311 123 331 186 164 188 180 227 153 197 180 164 162 186 187 217 274 212 50 177 225 289 289 335
157 161 163 160 164 166 160 168 160 152 146 137 113 64 41 49 72 91 43 333 51 141 257 263 253 246 230 198 113 327 37 311 20 283 314 125 242 105 169 246 47 216 179 184 180 211 229 235 230 263 218 239 289 300
159 160 161 161 163 164 160 167 160 151 155 157 152 112 84 65 56 77 79 297 47 39 312 354 330 339 49 205 187 163 289 59 66 356 325 309 257 128 193 239 229 248 170 200 119 255 241 256 260 240 224 246 263 213
157 161 161 158 166 160 163 164 162 156 162 164 155 127 88 68 43 89 93 345 71 98 318 283 327 312 293 234 195 212 137 67 137 257 8 317 294 33 260 263 233 215 131 194 254 286 289 271 240 241 225 200 168 121
158 159 157 161 164 158 160 162 162 162 164 166 161 144 113 61 75 83 79 29 128 99 279 295 309 284 299 292 215 172 153 98 97 281 201 232 278 318 245 211 228 200 213 176 229 249 219 253 286 216 215 205 187 158
156 154 159 161 159 157 161 163 165 164 163 166 160 143 113 85 108 81 53 344 12 85 93 325 286 288 331 40 93 131 132 103 95 176 229 275 260 292 292 263 251 225 212 211 260 245 214 278 294 284 218 182 165 151
152 155 157 160 155 157 160 164 163 162 165 160 158 142 142 102 80 99 156 207 118 81 71 327 337 311 1 66 18 116 101 171 155 234 245 265 285 264 259 256 248 280 290 325 313 290 252 205 270 55 126 113 102 77
151 155 158 154 155 159 159 158 158 160 157 150 139 118 109 101 92 54 346 74 93 89 76 359 284 354 40 281 241 158 147 197 200 239 265 220 279 197 258 253 291 281 264 303 286 186 266 18 113 93 73 107 100 94
150 154 153 154 155 155 153 153 153 153 147 135 121 114 78 49 71 209 36 104 84 73 94 27 344 287 256 245 172 222 173 221 167 224 243 152 205 227 236 274 286 333 285 257 201 184 148 177 147 155 108 75 107 102
149 151 153 153 154 149 149 148 145 144 135 123 78 78 75 239 171 108 153 130 90 97 89 251 135 278 293 263 189 214 200 229 224 218 144 225 258 258 245 247 284 317 313 273 119 260 229 220 194 168 84 97 87 10
148 150 150 151 144 146 145 145 139 125 99 68 104 119 214 353 70 100 108 74 165 60 175 240 201 284 189 269 292 210 249 226 247 177 214 218 250 276 345 319 326 337 8 8 9 75 66 57 144 151 116 74 57 29
144 145 145 143 143 146 144 142 146 101 140 163 127 104 65 102 42 95 320 228 162 213 183 240 332 236 266 235 256 197 254 240 250 151 239 245 300 336 328 323 346 5 12 37 28 53 59 80 78 78 78 54 28 11
139 139 139 144 143 145 144 149 135 125 105 56 53 58 72 319 85 116 191 296 201 159 60 13 315 287 274 261 263 261 238 236 222 223 243 233 322 332 310 304 1 18 25 54 43 42 47 60 54 60 63 26 14 13
136 138 142 141 142 147 143 140 135 110 78 88 118 47 136 269 227 184 178 165 135 144 206 265 250 268 291 258 267 250 249 271 246 242 239 334 322 312 311 302 19 23 44 78 81 92 81 72 61 63 57 27 13 4
136 138 135 137 146 139 133 139 122 67 94 114 93 219 204 221 291 226 214 116 173 150 187 300 277 252 261 277 246 286 245 244 223 240 17 294 315 305 299 293 176 162 164 151 117 106 66 356 34 20 27 18 0 357
129 117 114 146 142 134 130 113 66 90 67 95 71 85 278 49 300 277 212 221 213 177 127 175 242 267 263 265 252 233 256 234 282 356 319 307 321 320 301 284 237 174 174 185 198 32 87 11 5 325 337 5 351 348
106 112 145 144 138 131 107 87 87 72 132 96 262 232 147 153 206 209 174 189 132 102 167 142 221 228 331 259 255 222 232 281 292 265 250 290 285 294 292 264 225 193 190 201 205 238 207 3 336 315 308 301 322 302
89 141 138 134 120 97 56 62 96 120 207 195 204 208 204 226 205 212 191 144 122 170 112 198 199 226 221 219 246 245 233 247 245 241 247 281 283 288 255 249 236 218 202 199 195 220 213 252 266 266 266 263 297 288
143 139 135 134 112 107 117 85 96 208 209 208 262 160 192 266 262 137 133 130 123 162 105 156 233 221 227 217 220 245 217 208 246 270 261 273 276 272 265 245 241 228 227 216 206 220 218 250 244 263 264 256 272 284
126 131 132 122 90 94 99 75 44 127 174 226 56 163 175 188 262 158 114 134 132 112 221 225 222 216 204 215 195 197 191 192 213 293 287 278 297 326 271 234 240 248 238 226 239 246 266 273 239 236 229 227 236 256
92 118 80 63 56 56 101 140 131 183 150 127 308 167 247 6 29 125 148 135 143 219 235 228 234 237 212 216 203 192 220 180 216 204 254 295 283 262 280 269 256 243 230 228 234 245 240 238 246 216 205 224 221 233
80 85 93 44 82 19 81 44 113 103 88 188 71 54 110 180 208 210 140 186 227 226 211 208 227 219 210 234 235 208 222 209 231 249 268 279 275 305 284 257 209 252 243 235 217 240 242 230 217 207 203 220 215 199
88 58 66 109 125 141 113 46 91 91 134 208 50 50 271 236 231 317 232 239 252 239 222 224 208 203 215 231 271 243 201 205 229 234 251 249 257 251 255 258 220 234 268 259 213 236 245 253 258 227 204 197 167 199
77 126 190 202 126 105 108 69 72 86 65 140 128 268 258 220 157 114 252 245 244 238 212 215 159 160 346 311 243 235 214 175 181 278 235 220 277 279 234 253 258 230 229 255 219 228 231 244 249 204 182 185 194 209
165 209 167 160 92 105 111 106 133 157 213 192 157 280 257 103 115 243 234 259 246 242 232 185 200 212 219 236 276 243 200 164 176 208 250 184 195 322 300 263 262 245 198 198 245 233 244 216 223 205 198 197 208 219
209 194 188 168 184 155 162 149 193 196 164 183 225 224 53 96 149 250 228 233 240 225 204 200 199 198 231 214 216 201 215 177 128 171 263 186 189 183 225 250 301 297 198 194 174 214 228 212 215 216 224 233 233 219
210 184 156 51 126 119 97 68 90 133 168 201 183 153 125 212 241 250 275 236 225 230 207 201 190 201 222 208 206 242 172 166 179 184 142 169 207 203 186 212 243 241 198 194 197 205 225 221 219 220 230 223 216 217
139 162 167 184 92 29 136 146 163 196 206 180 122 185 194 200 237 237 220 247 231 262 253 239 226 220 215 224 251 97 62 40 352 327 306 262 237 227 227 233 242 259 252 208 216 219 221 226 225 217 215 231 238 200
141 170 119 119 94 218 205 178 203 213 165 154 174 216 234 226 236 236 267 241 285 261 298 292 284 164 290 254 209 201 167 153 114 275 271 270 302 279 231 219 238 222 218 235 261 250 218 215 225 219 222 219 224 189
227 152 95 133 170 217 237 176 218 262 226 189 229 320 303 275 253 229 252 255 245 250 240 218 259 138 239 233 284 297 207 192 199 218 261 268 250 254 270 251 245 243 202 200 240 273 281 280 283 262 180 154 167 166
121 76 82 169 221 244 233 318 300 309 26 322 329 185 246 301 306 268 270 346 308 323 359 313 305 253 243 263 231 270 286 263 230 250 263 280 261 259 264 252 242 234 229 224 225 227 215 234 212 200 187 198 215 204
111 143 147 166 290 284 59 52 26 3 333 4 277 335 322 359 284 281 344 347 43 39 3 3 300 282 300 289 279 270 288 295 295 286 272 263 261 259 256 254 244 212 216 222 222 212 208 217 210 210 208 210 204 199
85 67 58 28 345 331 24 41 19 331 342 307 281 228 229 207 246 276 291 100 143 192 262 258 257 266 270 272 264 286 311 285 286 295 298 293 287 279 253 226 219 206 210 220 214 187 200 202 214 204 198 195 190 187